When you browse on this site, cookies collect data to enhance your experience and personalize the content and advertising you see.
Visit our Privacy Policy to learn more. By continuing to use the site, you agree to this use of cookies and data.
  • In Portugal
  • List of Countries
  • For 7 days
  • Water Temperature
  • Weather Map
  • Weather Widgets
  • user-avatar
    Login

    Hourly Weather Baku

    Today, 8 December, Sunday

    Time Temperature Precipitation Wind Pressure Humidity
    00:00 +8°C° 0 mm 4 mps 765 mmHg 77%
    01:00 +8°C° 0 mm 4 mps 765 mmHg 77%
    02:00 +8°C° 0 mm 4 mps 764 mmHg 77%
    03:00 +8°C° 0 mm 4 mps 763 mmHg 77%
    04:00 +8°C° 0 mm 4 mps 763 mmHg 76%
    05:00 +8°C° 0 mm 4 mps 763 mmHg 76%
    06:00 +8°C° 0 mm 4 mps 763 mmHg 76%
    07:00 +8°C° 0 mm 4 mps 762 mmHg 74%
    08:00 +8°C° 0 mm 4 mps 762 mmHg 73%
    09:00 +10°C° 0 mm 4 mps 762 mmHg 71%
    10:00 +10°C° 0 mm 3 mps 761 mmHg 69%
    11:00 +11°C° 0 mm 3 mps 760 mmHg 66%
    12:00 +11°C° 0 mm 3 mps 760 mmHg 64%
    13:00 +11°C° 0 mm 3 mps 760 mmHg 64%
    14:00 +11°C° 0 mm 3 mps 759 mmHg 64%
    15:00 +11°C° 0 mm 3 mps 759 mmHg 64%
    16:00 +11°C° 0 mm 3 mps 759 mmHg 66%
    17:00 +10°C° 0 mm 2 mps 759 mmHg 67%
    18:00 +10°C° 0 mm 2 mps 759 mmHg 69%
    19:00 +10°C° 0.1 mm 2 mps 759 mmHg 70%
    20:00 +10°C° 0.1 mm 2 mps 759 mmHg 70%
    21:00 +10°C° 0.1 mm 2 mps 759 mmHg 71%
    22:00 +9°C° 0.6 mm 2 mps 759 mmHg 76%
    23:00 +9°C° 0.6 mm 2 mps 759 mmHg 81%

    Tomorrow, 9 December, Monday

    Time Temperature Precipitation Wind Pressure Humidity
    00:00 +9°C° 0.6 mm 3 mps 759 mmHg 85%
    01:00 +8°C° 1.1 mm 4 mps 759 mmHg 87%
    02:00 +8°C° 1.1 mm 5 mps 759 mmHg 88%
    03:00 +8°C° 1.1 mm 6 mps 759 mmHg 90%
    04:00 +8°C° 1 mm 7 mps 759 mmHg 89%
    05:00 +8°C° 1 mm 7 mps 760 mmHg 88%
    06:00 +7°C° 1 mm 8 mps 760 mmHg 87%
    07:00 +6°C° 0.9 mm 9 mps 761 mmHg 86%
    08:00 +6°C° 0.9 mm 10 mps 761 mmHg 84%
    09:00 +5°C° 0.9 mm 12 mps 762 mmHg 83%
    10:00 +5°C° 0.1 mm 12 mps 762 mmHg 78%
    11:00 +6°C° 0.1 mm 11 mps 762 mmHg 73%
    12:00 +7°C° 0.1 mm 11 mps 762 mmHg 68%
    13:00 +7°C° 0 mm 10 mps 762 mmHg 68%
    14:00 +7°C° 0 mm 10 mps 762 mmHg 69%
    15:00 +7°C° 0 mm 9 mps 762 mmHg 69%
    16:00 +7°C° 0 mm 8 mps 763 mmHg 70%
    17:00 +7°C° 0 mm 8 mps 763 mmHg 70%
    18:00 +8°C° 0 mm 7 mps 763 mmHg 71%
    19:00 +8°C° 0 mm 7 mps 764 mmHg 71%
    20:00 +8°C° 0 mm 7 mps 764 mmHg 71%
    21:00 +8°C° 0 mm 6 mps 764 mmHg 72%
    22:00 +8°C° 0 mm 6 mps 764 mmHg 73%
    23:00 +8°C° 0 mm 5 mps 764 mmHg 73%

    Day after tomorrow, 10 December, Tuesday

    Time Temperature Precipitation Wind Pressure Humidity
    00:00 +8°C° 0 mm 5 mps 764 mmHg 74%
    01:00 +8°C° 0 mm 5 mps 764 mmHg 75%
    02:00 +8°C° 0 mm 5 mps 764 mmHg 76%
    03:00 +7°C° 0 mm 5 mps 764 mmHg 77%
    04:00 +7°C° 0 mm 4 mps 764 mmHg 77%
    05:00 +7°C° 0 mm 4 mps 764 mmHg 78%
    06:00 +7°C° 0 mm 4 mps 764 mmHg 79%
    07:00 +8°C° 0 mm 3 mps 765 mmHg 77%
    08:00 +9°C° 0 mm 3 mps 765 mmHg 76%
    09:00 +9°C° 0 mm 3 mps 765 mmHg 74%
    10:00 +9°C° 0 mm 2 mps 765 mmHg 73%
    11:00 +9°C° 0 mm 2 mps 765 mmHg 71%
    12:00 +10°C° 0 mm 2 mps 764 mmHg 70%
    13:00 +11°C° 0 mm 1 mps 764 mmHg 71%
    14:00 +11°C° 0 mm 1 mps 764 mmHg 71%
    15:00 +11°C° 0 mm 1 mps 764 mmHg 72%
    16:00 +10°C° 0 mm 1 mps 764 mmHg 74%
    17:00 +10°C° 0 mm 1 mps 764 mmHg 77%
    18:00 +10°C° 0 mm 1 mps 764 mmHg 79%
    19:00 +9°C° 0 mm 0 mps 764 mmHg 79%
    20:00 +9°C° 0 mm 0 mps 764 mmHg 79%
    21:00 +9°C° 0 mm 0 mps 764 mmHg 79%
    22:00 +9°C° 0 mm 0 mps 764 mmHg 79%
    23:00 +10°C° 0 mm 1 mps 764 mmHg 80%

    11 December, Wednesday

    Time Temperature Precipitation Wind Pressure Humidity
    00:00 +10°C° 0 mm 1 mps 763 mmHg 80%
    01:00 +10°C° 0 mm 1 mps 763 mmHg 80%
    02:00 +10°C° 0 mm 1 mps 763 mmHg 80%
    03:00 +9°C° 0 mm 1 mps 763 mmHg 80%
    04:00 +8°C° 0 mm 2 mps 763 mmHg 80%
    05:00 +8°C° 0 mm 2 mps 763 mmHg 80%
    06:00 +8°C° 0 mm 3 mps 763 mmHg 80%
    07:00 +8°C° 0 mm 3 mps 763 mmHg 79%
    08:00 +9°C° 0 mm 3 mps 763 mmHg 78%
    09:00 +9°C° 0 mm 3 mps 763 mmHg 76%
    10:00 +8°C° 0 mm 4 mps 763 mmHg 75%
    11:00 +8°C° 0 mm 4 mps 763 mmHg 73%
    12:00 +8°C° 0 mm 4 mps 763 mmHg 71%
    13:00 +8°C° 0 mm 4 mps 763 mmHg 71%
    14:00 +8°C° 0 mm 4 mps 762 mmHg 72%
    15:00 +8°C° 0 mm 4 mps 762 mmHg 72%
    16:00 +8°C° 0 mm 4 mps 762 mmHg 72%
    17:00 +8°C° 0 mm 4 mps 763 mmHg 73%
    18:00 +8°C° 0 mm 4 mps 763 mmHg 74%
    19:00 +9°C° 0 mm 3 mps 763 mmHg 75%
    20:00 +9°C° 0 mm 3 mps 763 mmHg 76%
    21:00 +8°C° 0 mm 3 mps 763 mmHg 78%
    22:00 +8°C° 0 mm 2 mps 763 mmHg 79%
    23:00 +8°C° 0 mm 2 mps 763 mmHg 80%

    12 December, Thursday

    Time Temperature Precipitation Wind Pressure Humidity
    00:00 +9°C° 0 mm 1 mps 763 mmHg 81%
    01:00 +8°C° 0 mm 1 mps 762 mmHg 82%
    02:00 +8°C° 0 mm 1 mps 762 mmHg 82%
    03:00 +8°C° 0 mm 1 mps 762 mmHg 82%
    04:00 +8°C° 0 mm 1 mps 762 mmHg 82%
    05:00 +7°C° 0 mm 2 mps 762 mmHg 82%
    06:00 +7°C° 0 mm 3 mps 762 mmHg 82%
    07:00 +7°C° 0 mm 3 mps 762 mmHg 80%
    08:00 +7°C° 0 mm 4 mps 762 mmHg 77%
    09:00 +7°C° 0 mm 4 mps 762 mmHg 74%
    10:00 +8°C° 0 mm 5 mps 761 mmHg 71%
    11:00 +9°C° 0 mm 5 mps 761 mmHg 68%
    12:00 +9°C° 0 mm 5 mps 760 mmHg 64%
    13:00 +10°C° 0 mm 5 mps 760 mmHg 64%
    14:00 +10°C° 0 mm 5 mps 759 mmHg 63%
    15:00 +10°C° 0 mm 6 mps 759 mmHg 63%
    16:00 +9°C° 0 mm 5 mps 759 mmHg 66%
    17:00 +9°C° 0 mm 5 mps 759 mmHg 69%
    18:00 +8°C° 0 mm 4 mps 759 mmHg 71%
    19:00 +8°C° 0 mm 4 mps 759 mmHg 73%
    20:00 +8°C° 0 mm 5 mps 759 mmHg 74%
    21:00 +7°C° 0 mm 5 mps 759 mmHg 76%
    22:00 +7°C° 0 mm 6 mps 759 mmHg 79%
    23:00 +6°C° 0 mm 7 mps 759 mmHg 82%

    13 December, Friday

    Time Temperature Precipitation Wind Pressure Humidity
    00:00 +6°C° 0 mm 8 mps 759 mmHg 85%
    01:00 +6°C° 0 mm 8 mps 758 mmHg 84%
    02:00 +5°C° 0 mm 8 mps 758 mmHg 82%
    03:00 +5°C° 0 mm 8 mps 758 mmHg 81%
    04:00 +5°C° 0 mm 7 mps 758 mmHg 82%
    05:00 +5°C° 0 mm 7 mps 758 mmHg 83%
    06:00 +5°C° 0 mm 7 mps 758 mmHg 84%
    07:00 +4°C° 0.1 mm 7 mps 759 mmHg 85%
    08:00 +4°C° 0.1 mm 7 mps 759 mmHg 85%
    09:00 +4°C° 0.1 mm 7 mps 759 mmHg 85%
    10:00 +4°C° 0.1 mm 7 mps 759 mmHg 86%
    11:00 +4°C° 0.1 mm 7 mps 759 mmHg 86%
    12:00 +4°C° 0.1 mm 7 mps 758 mmHg 86%
    13:00 +4°C° 0.2 mm 7 mps 758 mmHg 86%
    14:00 +4°C° 0.2 mm 7 mps 758 mmHg 86%
    15:00 +4°C° 0.2 mm 7 mps 758 mmHg 86%
    16:00 +4°C° 0.2 mm 7 mps 758 mmHg 87%
    17:00 +3°C° 0.2 mm 7 mps 759 mmHg 88%
    18:00 +2°C° 0.2 mm 8 mps 759 mmHg 89%
    19:00 +2°C° 0.3 mm 8 mps 759 mmHg 89%
    20:00 +2°C° 0.3 mm 9 mps 759 mmHg 90%
    21:00 +2°C° 0.3 mm 9 mps 759 mmHg 90%
    22:00 +2°C° 0.4 mm 9 mps 759 mmHg 91%
    23:00 +1°C° 0.4 mm 10 mps 759 mmHg 91%
    Show more